Location: Berlin
(42.3812°N, 71.6370°W)
Time: 20:31:49
(UTC+00:00)

IRS-1D - Pass Details

Date: 15 November 2025
Orbit: 736 x 812 km, 98.8° (Epoch: 11 December)

Event Time Altitude Azimuth Distance (km) Brightness Sun altitude
Rises 10:33:50 0° 4° (N) 3,186 6.6 -11.9°
Reaches altitude 10° 10:36:18 10° 356° (N) 2,254 5.7 -11.5°
Maximum altitude 10:40:41 33° 293° (WNW) 1,216 4.0 -10.7°
Drops below altitude 10° 10:45:04 10° 230° (SW) 2,238 5.6 -9.9°
Sets 10:47:30 0° 221° (SW) 3,160 6.4 -9.5°
